Вернуться в каталог

CZ-6A DEB

АктивенSSO
NORAD 54577·DEBRIS·🇨🇳 China

Запущен Nov 11, 2022 с Taiyuan Satellite Launch Center

Loading…

Ближайшие Пролёты (ближайшие 24 часа)

TLE

СвежийSource: Space-Track

Эпоха: Sep 14, 2026, 09:12 UTC

1 54577U 22151MD  26257.38359376  .00006642  00000-0  10554-2 0  9990
2 54577  98.4495 296.6455 0057590 340.2578  19.6398 14.71327331202766

Отслеживайте CZ-6A DEB в реальном времени с AllMySat

Download on the App Store